Back to catalog

STARLINK-5944

AliveCommunicationsVLEO
NORAD 56001·PAYLOAD·🇺🇸 United States

Launched Mar 24, 2023 from Cape Canaveral Space Force Station

Loading…

Next Passes (next 24 hours)

TLE

FreshSource: CelesTrak SupGP

Epoch: Sep 14, 2026, 13:41 UTC

1 56001C 23042R   26257.57062500 -.00011135  00000+0 -40312-3 0  2572
2 56001  43.0020  77.0442 0000907 252.6226 260.0104 15.27599554    14

Track STARLINK-5944 in real time with AllMySat

Download on the App Store